Home > Weather > Borås > Past weeks

Flag for Sweden Weather for the Past 2 Weeks in Borås, Sweden

Now
14 °F

Clear.


Feels Like: 8 °F
Forecast: 19 / 28 °F
Wind: 3 mph from Northeast

Location: Gothenburg / Landvetter

Current Time: Feb 14, 2016 at 7:19:12 AM

Latest Report: Feb 14, 2016 at 6:50 AM


Visibility: 10 mi

Pressure: 29.45 "Hg

Humidity: 85%

Dew point: 10 °F

Location of BoråsLocation

Historic Weather in Borås — Graph

°F

Borås Temperature Yesterday

Maximum temperature yesterday: 30 °F (at 11:20 AM)
Minimum temperature yesterday: 19 °F (at 12:50 AM)
Average temperature yesterday: 26 °F

High & Low Weather Summary for the Past Weeks

 TemperatureHumidityPressure
High45 °F (Feb 7, 1:20 PM)100% (Jan 30, 6:20 PM)29.98 "Hg (Jan 30, 6:20 PM)
Low12 °F (Feb 14, 6:20 AM)52% (Feb 4, 1:20 PM)28.82 "Hg (Feb 9, 3:20 AM)
Average34 °F89%29.36 "Hg
* Reported Jan 30 6:20 AM — Feb 14 6:20 AM, Borås, Weather by CustomWeather, © 2016

Note: Actual official high and low records may vary slightly from our data, if they occured in-between our weather recording intervals... More about our weather records

Advertising

Borås Weather History for the Previous 24 Hours

 ConditionsComfort  
Time TempWeatherWind HumidityBarometerVisibility
6:20 AM
Sun, Feb 14
12 °FClear.3 mph85%29.45 "Hg10 mi
5:50 AM14 °FClear.3 mph92%29.45 "Hg10 mi
5:20 AM16 °FLight fog.5 mph93%29.45 "Hg1 mi
4:50 AM16 °FIce fog.5 mph93%29.45 "Hg1 mi
4:20 AM16 °FIce fog.3 mph86%29.45 "Hg0 mi
3:50 AM16 °FIce fog.5 mph93%29.45 "Hg0 mi
3:20 AM18 °FIce fog.3 mph86%29.45 "Hg0 mi
2:20 AM19 °FLight fog.6 mph93%29.45 "Hg0 mi
1:50 AM19 °FClear.6 mph93%29.45 "Hg10 mi
1:20 AM21 °FClear.6 mph93%29.45 "Hg10 mi
12:50 AM21 °FClear.6 mph100%29.45 "Hg10 mi
12:20 AM23 °FClear.3 mph93%29.45 "Hg10 mi
11:50 PM
Sat, Feb 13
23 °FClear.5 mph93%29.45 "Hg10 mi
11:20 PM23 °FPassing clouds.5 mph93%29.45 "HgN/A
10:50 PM23 °FPassing clouds.3 mph93%29.45 "HgN/A
10:20 PM25 °FOvercast.3 mph93%29.45 "HgN/A
9:50 PM25 °FOvercast.5 mph93%29.45 "HgN/A
9:20 PM25 °FPassing clouds.5 mph93%29.45 "HgN/A
8:50 PM25 °FOvercast.5 mph93%29.45 "HgN/A
8:20 PM27 °FPassing clouds.3 mph86%29.45 "HgN/A
7:50 PM27 °FPassing clouds.3 mph86%29.45 "HgN/A
7:20 PM27 °FMostly cloudy.3 mph86%29.45 "HgN/A
6:50 PM27 °FPartly cloudy.3 mph86%29.45 "HgN/A
6:20 PM27 °FPartly cloudy.3 mph86%29.45 "HgN/A
5:50 PM27 °FPassing clouds.3 mph93%29.45 "HgN/A
5:20 PM27 °FPassing clouds.3 mph93%29.45 "HgN/A
4:50 PM28 °FPartly sunny.3 mph86%29.45 "HgN/A
4:20 PM28 °FPartly sunny.5 mph74%29.42 "HgN/A
3:50 PM30 °FPartly sunny.7 mph59%29.42 "HgN/A
3:20 PM30 °FPartly sunny.7 mph59%29.42 "HgN/A
2:50 PM30 °FPartly sunny.9 mph64%29.42 "HgN/A
2:20 PM30 °FPartly sunny.8 mph80%29.42 "HgN/A
1:50 PM28 °FOvercast.5 mph80%29.42 "HgN/A
1:20 PM28 °FPartly sunny.5 mph80%29.45 "HgN/A
12:50 PM30 °FPartly sunny.9 mph75%29.45 "HgN/A
12:20 PM30 °FMostly cloudy.14 mph64%29.45 "HgN/A
11:50 AM30 °FSunny.12 mph69%29.45 "Hg10 mi
11:20 AM30 °FSunny.10 mph69%29.45 "Hg10 mi
10:50 AM28 °FSunny.8 mph80%29.45 "Hg10 mi
10:20 AM28 °FSunny.7 mph80%29.45 "Hg10 mi
9:50 AM27 °FSunny.8 mph86%29.45 "Hg10 mi
9:20 AM27 °FCloudy.7 mph86%29.45 "HgN/A
8:50 AM25 °FOvercast.6 mph93%29.45 "HgN/A
8:20 AM25 °FMostly cloudy.5 mph93%29.45 "HgN/A
7:50 AM25 °FLight snow. Partly sunny.5 mph93%29.42 "HgN/A
7:20 AM25 °FPassing clouds.5 mph93%29.42 "HgN/A
Weather by CustomWeather, © 2016

See weather overviewHow to use our weather pages